Location: Unspecified
(0.0000°N, 0.0000°E)
Time: 01:38:09
(UTC+01:00)

Iridium 76 - Visible Passes

Search period start: 14 December 2017 00:00
Search period end: 24 December 2017 00:00
Orbit: 776 x 779 km, 86.4° (Epoch: 13 December)

Date Brightness Start Highest point End Pass type
(mag) Time Alt. Az. Time Alt. Az. Time Alt. Az.
14 Dec 7.9 20:08:00 10° NW 20:12:05 24° W 20:16:11 10° SW visible
15 Dec 6.4 19:33:35 10° NNW 19:38:38 52° W 19:43:42 10° SSW visible
16 Dec 8.1 06:27:35 10° SE 06:31:46 24° E 06:35:55 10° NE visible
17 Dec 8.9 05:57:25 10° E 05:58:18 10° E 05:59:12 10° E visible
17 Dec 8.4 20:09:23 10° WNW 20:12:09 14° W 20:14:56 10° WSW visible
18 Dec 7.5 19:34:06 10° NNW 19:38:41 32° W 19:43:18 10° SSW visible
19 Dec 7.1 06:26:59 10° SSE 06:31:50 39° E 06:36:38 10° NNE visible
20 Dec 8.3 05:54:56 10° SE 05:58:22 18° E 06:01:48 10° NE visible
21 Dec 8.3 19:35:01 10° NW 19:38:45 20° W 19:42:31 10° SW visible
22 Dec 6.1 06:26:44 10° S 06:31:54 65° E 06:37:02 10° N visible
23 Dec 7.6 05:53:59 10° SSE 05:58:26 29° E 06:02:52 10° NNE visible
